Overview Statistics Trail Chart Weather Telemetry Raw packets
 

This is the latest recevied weather packets stored in our database for station/object N0QV. If no packets are shown the sender has not sent any weather packets the latest 10 day(s).

<< 49 50 51 52 53 54 55 >>
Time Temp. Humidity Pressure Rain* Wind** Luminosity Snow
1788336232 20° C 94% 1012.4 hPa 0 mm - 0 W/m² -
1788335932 20° C 93% 1012.6 hPa 0 mm - 0 W/m² -
1788335628 20° C 93% 1012.8 hPa 0 mm - 0 W/m² -
1788335323 20° C 93% 1012.5 hPa 0 mm - 0 W/m² -
1788335019 20° C 93% 1012.6 hPa 0 mm - 0 W/m² -
1788334713 20° C 93% 1012.8 hPa 0 mm - 0 W/m² -
1788334410 20° C 93% 1012.5 hPa 0 mm - 0 W/m² -
1788334106 20° C 93% 1012.5 hPa 0 mm - 0 W/m² -
1788333801 20° C 92% 1012.8 hPa 0 mm - 0 W/m² -
1788333498 20.56° C 92% 1011.3 hPa 0 mm - 0 W/m² -
1788333198 20.56° C 91% 1010.2 hPa 0 mm - 0 W/m² -
1788332895 20.56° C 91% 1009.9 hPa 0 mm - 0 W/m² -
1788332594 20.56° C 91% 1010 hPa 0 mm - 0 W/m² -
1788332307 20.56° C 91% 1010.4 hPa 1.27 mm - 0 W/m² -
1788331988 20.56° C 91% 1011 hPa 1.27 mm - 0 W/m² -
1788331683 20° C 91% 1011.1 hPa 1.78 mm - 0 W/m² -
1788331379 20° C 91% 1011.6 hPa 3.56 mm - 0 W/m² -
1788331075 20° C 91% 1011.9 hPa 1.78 mm - 0 W/m² -
1788330769 20° C 92% 1012.5 hPa 1.27 mm - 0 W/m² -
1788330469 20° C 92% 1012.7 hPa 1.27 mm - 0 W/m² -
1788330163 20° C 92% 1013 hPa 0 mm - 0 W/m² -
1788329862 20° C 92% 1013.3 hPa 1.78 mm - 0 W/m² -
1788329558 20° C 92% 1013.1 hPa 1.78 mm - 0 W/m² -
1788329255 20° C 92% 1013.1 hPa 0 mm - 0 W/m² -
1788328951 20° C 92% 1012.9 hPa 1.27 mm - 0 W/m² -

* Rain latest hour (hover to see other rain measurements)
** Current wind speed in m/s (hover to see current wind gust speed)